EJU41BJ LFPG-EGKK

Flight info

Callsign EJU41BJ
Flight time 0h 40m
Altitude 24000
Route OPALE DCT KESAX DCT KUNAV
Aircraft A320/M-SDE3FGHIRWY/LB1

Departure

Time 2026-05-05 14:10
Airport Charles de Gaulle International Airport (LFPG)

Arrival

Time 2026-05-05 14:50
Airport London Gatwick Airport (EGKK)
Time Latitude Longitude Altitude Speed Heading
2026-05-05 13:33 49.00540 2.56345 355 ft 0 kts 195°
2026-05-05 13:59 49.00541 2.56345 354 ft 1 kts 195°
2026-05-05 14:00 49.00588 2.56368 363 ft 4 kts 215°
2026-05-05 14:00 49.00604 2.56396 360 ft 4 kts 255°
2026-05-05 14:00 49.00607 2.56419 359 ft 1 kts 265°
2026-05-05 14:00 49.00607 2.56422 359 ft 0 kts 265°
2026-05-05 14:03 49.00607 2.56420 359 ft 2 kts 265°
2026-05-05 14:03 49.00605 2.56377 357 ft 5 kts 266°
2026-05-05 14:03 49.00602 2.56309 354 ft 9 kts 266°
2026-05-05 14:04 49.00596 2.56196 354 ft 12 kts 264°
2026-05-05 14:04 49.00583 2.56077 357 ft 11 kts 255°
2026-05-05 14:04 49.00566 2.55966 361 ft 10 kts 267°
2026-05-05 14:04 49.00568 2.55866 358 ft 10 kts 269°
2026-05-05 14:05 49.00561 2.55721 354 ft 17 kts 266°
2026-05-05 14:05 49.00553 2.55549 357 ft 15 kts 265°
2026-05-05 14:05 49.00538 2.55406 354 ft 13 kts 247°
2026-05-05 14:05 49.00467 2.55333 354 ft 14 kts 186°
2026-05-05 14:06 49.00370 2.55362 354 ft 14 kts 165°
2026-05-05 14:06 49.00284 2.55399 357 ft 12 kts 164°
2026-05-05 14:06 49.00206 2.55433 357 ft 11 kts 164°
2026-05-05 14:06 49.00135 2.55464 354 ft 12 kts 163°
2026-05-05 14:07 49.00045 2.55503 357 ft 13 kts 164°
2026-05-05 14:07 48.99969 2.55536 357 ft 10 kts 163°
2026-05-05 14:07 48.99894 2.55589 358 ft 13 kts 145°
2026-05-05 14:07 48.99848 2.55678 360 ft 8 kts 114°
2026-05-05 14:08 48.99833 2.55742 354 ft 8 kts 110°
2026-05-05 14:08 48.99785 2.55804 363 ft 8 kts 172°
2026-05-05 14:08 48.99735 2.55809 356 ft 10 kts 176°
2026-05-05 14:08 48.99655 2.55817 360 ft 10 kts 176°
2026-05-05 14:09 48.99603 2.55877 355 ft 12 kts 99°
2026-05-05 14:09 48.99611 2.56033 354 ft 29 kts 84°
2026-05-05 14:09 48.99646 2.56706 356 ft 95 kts 85°
2026-05-05 14:09 48.99715 2.57976 360 ft 145 kts 85°
2026-05-05 14:10 48.99792 2.59622 749 ft 157 kts 82°
2026-05-05 14:10 48.99882 2.61292 1451 ft 158 kts 80°
2026-05-05 14:10 48.99979 2.63022 1902 ft 174 kts 81°
2026-05-05 14:10 49.00092 2.64993 2203 ft 199 kts 84°
2026-05-05 14:11 49.00213 2.67228 2587 ft 224 kts 84°
2026-05-05 14:11 49.00346 2.69717 3134 ft 245 kts 84°
2026-05-05 14:11 49.00478 2.72216 3996 ft 252 kts 84°
2026-05-05 14:11 49.00614 2.74913 4963 ft 258 kts 84°
2026-05-05 14:12 49.00753 2.77569 5885 ft 263 kts 84°
2026-05-05 14:12 49.00896 2.80322 6899 ft 265 kts 84°
2026-05-05 14:12 49.01058 2.83136 7889 ft 268 kts 79°
2026-05-05 14:12 49.01778 2.85787 8948 ft 272 kts 53°
2026-05-05 14:13 49.03156 2.87616 9903 ft 277 kts 29°
2026-05-05 14:13 49.05028 2.88405 10545 ft 287 kts
2026-05-05 14:13 49.06900 2.87851 11200 ft 296 kts 337°
2026-05-05 14:13 49.08676 2.86106 11611 ft 315 kts 325°
2026-05-05 14:14 49.10492 2.84022 11789 ft 339 kts 324°
2026-05-05 14:14 49.12400 2.81766 12175 ft 353 kts 324°
2026-05-05 14:14 49.14348 2.79428 12815 ft 359 kts 323°
2026-05-05 14:14 49.16322 2.77050 13457 ft 364 kts 323°
2026-05-05 14:15 49.18328 2.74649 14043 ft 369 kts 323°
2026-05-05 14:15 49.20337 2.72258 14643 ft 372 kts 323°
2026-05-05 14:15 49.22424 2.69784 15241 ft 377 kts 323°
2026-05-05 14:15 49.24476 2.67361 15845 ft 380 kts 323°
2026-05-05 14:16 49.26582 2.64877 16481 ft 383 kts 323°
2026-05-05 14:16 49.28703 2.62371 17049 ft 387 kts 323°
2026-05-05 14:16 49.30843 2.59836 17648 ft 391 kts 323°
2026-05-05 14:16 49.32159 2.58275 17989 ft 394 kts 323°
2026-05-05 14:17 49.34343 2.55677 18486 ft 399 kts 322°
2026-05-05 14:17 49.36537 2.53062 19031 ft 401 kts 322°
2026-05-05 14:17 49.38745 2.50428 19583 ft 404 kts 322°
2026-05-05 14:17 49.40941 2.47809 20140 ft 406 kts 322°
2026-05-05 14:18 49.43180 2.45134 20691 ft 409 kts 322°
2026-05-05 14:18 49.45430 2.42446 21252 ft 411 kts 322°
2026-05-05 14:18 49.47700 2.39732 21781 ft 414 kts 322°
2026-05-05 14:18 49.49979 2.37004 22300 ft 417 kts 322°
2026-05-05 14:19 49.52285 2.34243 22756 ft 422 kts 322°
2026-05-05 14:19 49.54602 2.31458 23289 ft 424 kts 321°
2026-05-05 14:19 49.56931 2.28652 23711 ft 427 kts 321°
2026-05-05 14:19 49.59244 2.25867 23827 ft 426 kts 322°
2026-05-05 14:20 49.61559 2.23080 23863 ft 422 kts 321°
2026-05-05 14:20 49.63876 2.20287 23863 ft 423 kts 321°
2026-05-05 14:20 49.66191 2.17486 23854 ft 423 kts 321°
2026-05-05 14:20 49.68437 2.14764 23858 ft 424 kts 321°
2026-05-05 14:21 49.70755 2.11956 23857 ft 424 kts 321°
2026-05-05 14:21 49.73077 2.09141 23855 ft 423 kts 321°
2026-05-05 14:21 49.75387 2.06336 23864 ft 423 kts 321°
2026-05-05 14:21 49.77705 2.03516 23865 ft 423 kts 321°
2026-05-05 14:22 49.80010 2.00708 23861 ft 422 kts 321°
2026-05-05 14:22 49.82281 1.97941 23867 ft 422 kts 321°
2026-05-05 14:22 49.84584 1.95129 23863 ft 422 kts 321°
2026-05-05 14:22 49.86893 1.92302 23858 ft 422 kts 321°
2026-05-05 14:23 49.89189 1.89486 23865 ft 422 kts 321°
2026-05-05 14:23 49.91491 1.86657 23863 ft 422 kts 321°
2026-05-05 14:23 49.93796 1.83822 23863 ft 422 kts 321°
2026-05-05 14:23 49.96097 1.80992 23876 ft 422 kts 321°
2026-05-05 14:24 49.98400 1.78154 23882 ft 422 kts 321°
2026-05-05 14:24 50.00696 1.75322 23880 ft 422 kts 321°
2026-05-05 14:24 50.02971 1.72548 23877 ft 421 kts 321°
2026-05-05 14:24 50.05275 1.69720 23883 ft 422 kts 321°
2026-05-05 14:25 50.07551 1.66828 23878 ft 422 kts 320°
2026-05-05 14:25 50.09781 1.63877 23880 ft 422 kts 319°
2026-05-05 14:25 50.12005 1.60888 23877 ft 422 kts 318°
2026-05-05 14:25 50.14208 1.57867 23889 ft 421 kts 318°
2026-05-05 14:26 50.16398 1.54837 23894 ft 421 kts 318°
2026-05-05 14:26 50.18588 1.51810 23897 ft 420 kts 318°
2026-05-05 14:26 50.20754 1.48834 23891 ft 421 kts 317°
2026-05-05 14:26 50.22949 1.45830 23898 ft 420 kts 317°
2026-05-05 14:27 50.25135 1.42846 23744 ft 413 kts 318°
2026-05-05 14:27 50.27280 1.39918 23510 ft 406 kts 317°
2026-05-05 14:27 50.29408 1.37015 23248 ft 404 kts 318°
2026-05-05 14:27 50.31508 1.34138 22970 ft 400 kts 317°
2026-05-05 14:28 50.33597 1.31267 22705 ft 398 kts 318°
2026-05-05 14:28 50.35668 1.28415 22432 ft 395 kts 318°
2026-05-05 14:28 50.37725 1.25578 22161 ft 392 kts 318°
2026-05-05 14:28 50.39744 1.22793 21917 ft 392 kts 318°
2026-05-05 14:29 50.41793 1.19974 21648 ft 391 kts 318°
2026-05-05 14:29 50.43826 1.17175 21379 ft 388 kts 317°
2026-05-05 14:29 50.45856 1.14369 21120 ft 388 kts 318°
2026-05-05 14:29 50.47873 1.11577 20864 ft 386 kts 318°
2026-05-05 14:30 50.49876 1.08804 20608 ft 381 kts 318°
2026-05-05 14:30 50.51816 1.06017 20182 ft 377 kts 313°
2026-05-05 14:30 50.53603 1.03001 19718 ft 375 kts 313°
2026-05-05 14:30 50.55374 1.00011 19230 ft 374 kts 314°
2026-05-05 14:31 50.57146 0.97025 18766 ft 372 kts 314°
2026-05-05 14:31 50.58889 0.94095 18277 ft 372 kts 314°
2026-05-05 14:31 50.60650 0.91128 17758 ft 370 kts 314°
2026-05-05 14:31 50.62399 0.88176 17284 ft 367 kts 314°
2026-05-05 14:32 50.64130 0.85246 16815 ft 364 kts 314°
2026-05-05 14:32 50.65851 0.82331 16348 ft 362 kts 314°
2026-05-05 14:32 50.67554 0.79433 15887 ft 360 kts 313°
2026-05-05 14:32 50.69210 0.76435 15146 ft 366 kts 311°
2026-05-05 14:33 50.70832 0.73303 14427 ft 372 kts 310°
2026-05-05 14:33 50.72403 0.70161 14052 ft 367 kts 310°
2026-05-05 14:33 50.73969 0.66998 13559 ft 364 kts 309°
2026-05-05 14:33 50.75526 0.63870 13079 ft 361 kts 310°
2026-05-05 14:34 50.77059 0.60813 12918 ft 348 kts 309°
2026-05-05 14:34 50.78542 0.57869 12691 ft 335 kts 310°
2026-05-05 14:34 50.79949 0.55084 12474 ft 314 kts 310°
2026-05-05 14:34 50.81292 0.52436 11939 ft 306 kts 310°
2026-05-05 14:35 50.82613 0.49835 11325 ft 301 kts 310°
2026-05-05 14:35 50.83900 0.47306 10724 ft 297 kts 310°
2026-05-05 14:35 50.85189 0.44769 10115 ft 293 kts 309°
2026-05-05 14:35 50.86454 0.42272 9481 ft 290 kts 309°
2026-05-05 14:36 50.87694 0.39820 8893 ft 284 kts 309°
2026-05-05 14:36 50.88920 0.37394 8489 ft 283 kts 309°
2026-05-05 14:36 50.90144 0.34962 8077 ft 282 kts 310°
2026-05-05 14:36 50.91363 0.32535 7681 ft 281 kts 310°
2026-05-05 14:37 50.92575 0.30121 7273 ft 280 kts 310°
2026-05-05 14:37 50.93777 0.27727 6897 ft 278 kts 310°
2026-05-05 14:37 50.94974 0.25339 6578 ft 274 kts 310°
2026-05-05 14:37 50.96140 0.22979 6115 ft 271 kts 310°
2026-05-05 14:38 50.97290 0.20633 5651 ft 268 kts 310°
2026-05-05 14:38 50.98416 0.18338 5235 ft 267 kts 311°
2026-05-05 14:38 50.99556 0.16014 4823 ft 266 kts 311°
2026-05-05 14:38 51.00684 0.13693 4415 ft 265 kts 307°
2026-05-05 14:39 51.01524 0.11084 4010 ft 267 kts 290°
2026-05-05 14:39 51.01870 0.08199 3895 ft 269 kts 276°
2026-05-05 14:39 51.01996 0.05215 3825 ft 271 kts 276°
2026-05-05 14:39 51.02123 0.02234 3751 ft 270 kts 276°
2026-05-05 14:40 51.02252 -0.00754 3646 ft 270 kts 276°
2026-05-05 14:40 51.02378 -0.03705 3580 ft 268 kts 276°
2026-05-05 14:40 51.02503 -0.06656 3521 ft 267 kts 276°
2026-05-05 14:40 51.02629 -0.09586 3456 ft 267 kts 276°
2026-05-05 14:41 51.02756 -0.12543 3399 ft 267 kts 276°
2026-05-05 14:41 51.02879 -0.15489 3334 ft 267 kts 276°
2026-05-05 14:41 51.03001 -0.18425 3276 ft 267 kts 276°
2026-05-05 14:41 51.03124 -0.21363 3216 ft 266 kts 276°
2026-05-05 14:42 51.03245 -0.24251 3115 ft 265 kts 276°
2026-05-05 14:42 51.03364 -0.27174 3000 ft 266 kts 276°
2026-05-05 14:42 51.03481 -0.30107 3006 ft 266 kts 276°
2026-05-05 14:42 51.03598 -0.33039 3000 ft 266 kts 276°
2026-05-05 14:43 51.03712 -0.35975 3005 ft 266 kts 275°
2026-05-05 14:43 51.03827 -0.38904 3010 ft 265 kts 276°
2026-05-05 14:43 51.03941 -0.41829 3009 ft 265 kts 275°
2026-05-05 14:43 51.04055 -0.44745 3008 ft 265 kts 276°
2026-05-05 14:44 51.04170 -0.47646 3002 ft 257 kts 275°
2026-05-05 14:44 51.04282 -0.50404 3007 ft 247 kts 276°
2026-05-05 14:44 51.04600 -0.53030 2998 ft 237 kts 301°
2026-05-05 14:44 51.05722 -0.54744 2999 ft 227 kts 341°
2026-05-05 14:45 51.07255 -0.55088 3008 ft 224 kts
2026-05-05 14:45 51.08792 -0.54710 3003 ft 223 kts 24°
2026-05-05 14:45 51.09940 -0.53132 3001 ft 222 kts 60°
2026-05-05 14:45 51.10408 -0.50799 2999 ft 219 kts 76°
2026-05-05 14:46 51.10717 -0.48456 3008 ft 216 kts 76°
2026-05-05 14:46 51.11034 -0.46134 3012 ft 209 kts 76°
2026-05-05 14:46 51.11338 -0.43955 3002 ft 196 kts 75°
2026-05-05 14:46 51.11627 -0.41895 2905 ft 187 kts 75°
2026-05-05 14:47 51.11907 -0.39904 2663 ft 182 kts 75°
2026-05-05 14:47 51.12176 -0.37984 2421 ft 177 kts 75°
2026-05-05 14:47 51.12435 -0.36134 2198 ft 166 kts 75°
2026-05-05 14:47 51.12676 -0.34408 1997 ft 151 kts 74°
2026-05-05 14:48 51.12894 -0.32843 1786 ft 140 kts 74°
2026-05-05 14:48 51.13105 -0.31340 1604 ft 138 kts 74°
2026-05-05 14:48 51.13309 -0.29867 1397 ft 136 kts 75°
2026-05-05 14:48 51.13507 -0.28429 1211 ft 133 kts 73°
2026-05-05 14:49 51.13703 -0.27069 1031 ft 131 kts 74°
2026-05-05 14:49 51.13903 -0.25666 860 ft 135 kts 75°
2026-05-05 14:49 51.14102 -0.24215 702 ft 135 kts 77°
2026-05-05 14:49 51.14305 -0.22754 510 ft 133 kts 76°
2026-05-05 14:50 51.14502 -0.21325 317 ft 134 kts 77°
2026-05-05 14:50 51.14693 -0.19917 209 ft 118 kts 77°
2026-05-05 14:50 51.14838 -0.18895 207 ft 70 kts 77°
2026-05-05 14:50 51.14922 -0.18264 208 ft 43 kts 78°
2026-05-05 14:51 51.15017 -0.17890 214 ft 29 kts 55°
2026-05-05 14:51 51.15115 -0.17763 208 ft 11 kts 359°
2026-05-05 14:51 51.15159 -0.17770 214 ft 5 kts 354°
2026-05-05 14:51 51.15194 -0.17776 205 ft 5 kts 354°
2026-05-05 14:52 51.15226 -0.17781 205 ft 7 kts 357°
2026-05-05 14:52 51.15260 -0.17744 205 ft 12 kts 62°
2026-05-05 14:52 51.15284 -0.17587 205 ft 14 kts 79°
2026-05-05 14:52 51.15303 -0.17432 215 ft 13 kts 78°
2026-05-05 14:53 51.15382 -0.17386 209 ft 12 kts 348°
2026-05-05 14:53 51.15474 -0.17416 207 ft 14 kts 348°
2026-05-05 14:53 51.15575 -0.17450 205 ft 16 kts 348°
2026-05-05 14:53 51.15687 -0.17490 209 ft 15 kts 348°
2026-05-05 14:54 51.15747 -0.17528 205 ft 13 kts 310°
2026-05-05 14:54 51.15742 -0.17658 206 ft 11 kts 257°
2026-05-05 14:54 51.15727 -0.17763 208 ft 8 kts 257°
2026-05-05 14:54 51.15708 -0.17812 209 ft 4 kts 194°
2026-05-05 14:55 51.15675 -0.17801 207 ft 2 kts 167°
2026-05-05 14:55 51.15666 -0.17798 210 ft 2 kts 167°
2026-05-05 14:55 51.15658 -0.17795 209 ft 1 kts 167°
2026-05-05 14:55 51.15654 -0.17793 205 ft 0 kts 167°